Regional Weather Roundup
Issued by NWS Mobile, AL

Home | Current Version | Previous Version | Text Only | Print | Product List | Glossary On
Versions: 1 2 3 4 5 6 7 8 9 10 11 12 13 14 15 16 17 18 19 20 21 22 23 24 25 26 27
000
ASUS44 KMOB 030912
RWRMOB
REGIONAL WEATHER ROUNDUP
NATIONAL WEATHER SERVICE MOBILE AL
400 AM CDT TUE AUG 03 2021

NOTE: "FAIR" INDICATES FEW OR NO CLOUDS BELOW 12,000 FEET WITH NO
      SIGNIFICANT WEATHER AND/OR OBSTRUCTIONS TO VISIBILITY.

  * THESE STATIONS ARE PART OF THE UNIVERSITY OF SOUTH ALABAMA
    MESONET AND ARE NOT UNDER NWS OR FAA QUALITY CONTROL.

ALZ061>064-031000-
COASTAL ALABAMA

CITY           SKY/WX    TMP DP  RH WIND       PRES   REMARKS
MOBILE REG APT CLOUDY    73  72  96 NE5       29.93F
BROOKLEY FIELD MOCLDY    76  74  93 N6        29.93F
USA CAMPUS*    NOT AVBL
DOG RIVER*     NOT AVBL


CITY           SKY/WX    TMP DP  RH WIND       PRES   REMARKS
GULF SHORES    PTCLDY    74  73  98 CALM      29.91F

$$

ALZ051>060-031000-
INTERIOR SOUTHWEST AND SOUTH CENTRAL ALABAMA

CITY           SKY/WX    TMP DP  RH WIND       PRES   REMARKS
GREENVILLE     CLOUDY    71  66  84 N3        29.95F HAZE
EVERGREEN      CLOUDY    74  71  91 CALM      29.95F
ATMORE*          N/A    N/A N/A N/A CALM      29.94F
ANDALUSIA/OPP  CLOUDY    76  71  85 CALM      29.95S
ANDALUSIA*       N/A    N/A N/A N/A N3        29.96S
FLORALA APT    FOG       73  70  90 CALM      29.96S VSB 1
FLORALA*       NOT AVBL

$$

FLZ001>006-031000-
WESTERN FLORIDA PANHANDLE

CITY           SKY/WX    TMP DP  RH WIND       PRES   REMARKS
PENSACOLA      PTCLDY    76  74  93 CALM      29.91F
NAS PENSACOLA  PTCLDY    75  73  93 N5        29.90F
MILTON         NOT AVBL
WHTNG S FIELD  NOT AVBL


CITY           SKY/WX    TMP DP  RH WIND       PRES   REMARKS
JAY*           NOT AVBL
DUKE FIELD     CLOUDY    72  72 100 N3        29.92F FOG
CRESTVIEW      MOCLDY    73  72  96 CALM      29.94F
VALPARAISO     MOCLDY    74  72  94 N6        29.91S
DESTIN         NOT AVBL

$$

MSZ076-079-031000-
INTERIOR SOUTHEAST MISSISSIPPI

CITY           SKY/WX    TMP DP  RH WIND       PRES   REMARKS
LEAKESVILLE*   NOT AVBL
AGRICOLA*      NOT AVBL

$$

MARINE OBSERVATIONS

STATION/POSITION TIME  TEMP    WIND        PRES    WAVE
                       AIR SEA DIR/SP/G            HT/PER
                 (UTC) (F)     (DEG/KT/KT) (MB)    (FT/S)
PETIT BOIS ISLND 0824   82      20/  3/  4 1013.5
E DAUPHIN ISLAND 0800   81      CALM  /  1 1013.5F
USCG MOBILE BAY  0824   75 87  350/  4/  5 1012.7
STATE DOCKS      0824   75 86              1013.7
WEEKS BAY        0745   74                 1014.0F
FORT MORGAN      0824   80        CALM     1013.1
12 S ORANGE BCH  0850   83 87  240/  4/  6   N/A     1/ 5
PENSACOLA BAY    0824   78 89  340/  2/  3 1013.2
64 S DAUPHIN ISL 0850   77     220/ 12/ 29 1014.3R   3/ 4

$$

SELECTED LOCATIONS ACROSS THE REGION

CITY           SKY/WX    TMP DP  RH WIND       PRES   REMARKS
NEW ORLEANS    CLOUDY    80  74  81 NW3       29.93S
GULFPORT       CLOUDY    75  73  93 N3        29.91F
PASCAGOULA AP  CLOUDY    75  74  96 CALM      29.92F
PASCAGOULA*    NOT AVBL
HATTIESBURG    CLOUDY    75  71  87 CALM      29.95F
LAUREL         CLOUDY    74  74 100 CALM      29.96F
MERIDIAN       MOCLDY    71  69  93 N3        29.96F
JACKSON        CLOUDY    74  71  91 CALM      29.96F
MONTGOMERY     MOCLDY    71  68  90 CALM      29.95F
TROY           CLOUDY    72  67  84 CALM      29.96S
ASHFORD*         N/A    N/A N/A N/A N3        29.96S
DOTHAN         MOCLDY    74  73  97 W3        29.97S
PANAMA CITY    PTCLDY    75  74  96 CALM      29.90F

$$




USA.gov is the U.S. government's official web portal to all federal, state and local government web resources and services.